Location: Rochester
(43.1610°N, 77.6109°W)
Time: 12:16:58
(UTC-05:00)

Envisat - Visible Passes

Search period start: 18 February 2019 00:00
Search period end: 28 February 2019 00:00
Orbit: 764 x 766 km, 98.2° (Epoch: 18 February)

Date Brightness Start Highest point End Pass type
(mag) Time Alt. Az. Time Alt. Az. Time Alt. Az.
18 Feb 3.0 18:27:27 10° SSE 18:32:25 58° ENE 18:37:24 10° N visible
18 Feb 5.8 20:08:30 10° SW 20:11:49 17° W 20:15:09 10° NW visible
19 Feb 4.5 19:30:05 10° SSW 19:34:45 37° W 19:39:29 10° NNW visible
20 Feb 3.1 18:52:50 10° SSE 18:57:55 82° WSW 19:03:01 10° NNW visible
21 Feb 3.3 18:16:25 10° SE 18:21:15 46° ENE 18:26:07 10° N visible
21 Feb 5.5 19:56:37 10° SW 20:00:29 22° W 20:04:24 10° NW visible
22 Feb 6.3 06:25:41 10° NE 06:28:31 15° E 06:31:19 10° ESE visible
22 Feb 4.1 19:18:37 10° S 19:23:30 47° W 19:28:24 10° NNW visible
23 Feb 2.9 18:41:38 10° SSE 18:46:42 80° ENE 18:51:48 10° N visible
23 Feb 6.1 20:24:16 10° WSW 20:26:19 12° W 20:28:23 10° WNW visible
24 Feb 5.1 19:44:54 10° SSW 19:49:11 27° W 19:53:30 10° NW visible
25 Feb 6.6 06:15:31 10° ENE 06:17:09 11° E 06:18:48 10° ESE visible
25 Feb 3.6 19:07:15 10° S 19:12:15 59° W 19:17:17 10° NNW visible
26 Feb 3.0 18:30:30 10° SSE 18:35:31 64° ENE 18:40:33 10° N visible
26 Feb 5.9 20:11:56 10° SW 20:14:59 16° W 20:18:01 10° NW visible
27 Feb 4.7 19:33:19 10° SSW 19:37:54 34° W 19:42:31 10° NNW visible
